sat.trackr.live / text

‹ back to catalog

STARLINK-3078

NORAD 49134 · 2021-082E

PAYLOAD ACTIVE UNKNOWN

§ Identity

Operator
Country
US
Launch date
2021-09-14
Launch site
AFWTR
Launch vehicle
Mass (kg)
RCS (m²)

Purposes: comms

External: N2YO · Heavens-Above · Gunter

§ Orbital elements

Epoch: 2026-09-10T02:37:12.484128Z

Period
96.11 min
Inclination
69.9997°
Eccentricity
0.0003146
Mean motion
14.98331671 rev/d
Perigee alt
569.9 km
Apogee alt
574.2 km
Semi-major
6,950.2 km
B*
-4.7052e-5
RAAN
189.4713°
Arg perigee
266.3722°
Mean anomaly
93.7077°
Rev number
27,480

§ Raw data

STARLINK-30781 49134U 21082E   26253.10917227 -.00000654  00000+0 -47052-4 0  99992 49134  69.9997 189.4713 0003146 266.3722  93.7077 14.98331671274804

JSON: /api/v1/satellites/49134 · /tle

For live sub-satellite position, see the globe view (requires WebGL).

§ Visibility from observer

Set your observer location to see the next 7 days of passes ≥ 10°. The values pass through the URL so the page stays shareable.

No JS? Fill the form by hand. The geolocation button needs JavaScript.